GW4669 Weather Reports


Display with metric or nautical units.
time (UTC)temp
F
wind
direction
speed
MPH
gust
MPH
rain 1hr
in
rain 24hr
in
rain mn
in
humidity
%
barometer
mb
20260504184951 69 303 4.0 9.0 0.00 0.00 0.00 40 1005.9
20260504184447 70 196 5.0 10.0 0.00 0.00 0.00 39 1006.0
20260504183942 69 222 3.0 5.0 0.00 0.00 0.00 39 1005.9
20260504183440 68 228 1.0 9.0 0.00 0.00 0.00 41 1006.0
20260504182938 68 149 4.0 9.0 0.00 0.00 0.00 39 1006.0
20260504182434 67 174 3.0 10.0 0.00 0.00 0.00 40 1006.2
20260504181932 68 191 3.0 7.0 0.00 0.00 0.00 41 1006.1
20260504181428 68 304 0.0 11.0 0.00 0.00 0.00 40 1006.2
20260504180927 68 315 4.0 7.0 0.00 0.00 0.00 39 1006.2
20260504180426 68 240 2.0 10.0 0.00 0.00 0.00 39 1006.2
20260504175924 67 293 4.0 13.0 0.00 0.00 0.00 40 1006.3
20260504175421 67 322 4.0 16.0 0.00 0.00 0.00 39 1006.3
20260504174918 68 190 3.0 13.0 0.00 0.00 0.00 39 1006.4
20260504174415 67 312 4.0 10.0 0.00 0.00 0.00 39 1006.4
20260504173913 68 282 9.0 15.0 0.00 0.00 0.00 38 1006.4
20260504173409 68 322 3.0 10.0 0.00 0.00 0.00 38 1006.5
20260504172907 68 215 3.0 9.0 0.00 0.00 0.00 39 1006.4
20260504172403 68 325 3.0 10.0 0.00 0.00 0.00 38 1006.4
20260504171859 68 353 2.0 16.0 0.00 0.00 0.00 39 1006.3
20260504171356 66 186 3.0 10.0 0.00 0.00 0.00 39 1006.3
20260504170853 66 306 7.0 13.0 0.00 0.00 0.00 39 1006.6
20260504170350 66 243 4.0 17.0 0.00 0.00 0.00 43 1006.6
20260504160308 62 283 2.0 9.0 0.00 0.00 0.00 43 1007.5
20260504150733 62 168 4.0 9.0 0.00 0.00 0.00 43 1007.7
20260504150230 60 206 15.0 15.0 0.00 0.00 0.00 45 1007.7
20260504141159 56 170 4.0 6.0 0.00 0.00 0.00 50 1008.0
20260504140656 56 151 2.0 7.0 0.00 0.00 0.00 49 1008.5
20260504140152 56 221 3.0 6.0 0.00 0.00 0.00 49 1008.0
20260504130620 54 211 3.0 6.0 0.00 0.00 0.00 52 1008.0
20260504130117 54 196 5.0 12.0 0.00 0.00 0.00 51 1008.2
20260504110508 50 165 4.0 10.0 0.00 0.00 0.00 56 1008.5
20260504100430 47 175 3.0 5.0 0.00 0.00 0.00 63 1008.6
20260504081823 44 173 2.0 3.0 0.00 0.00 0.00 79 1008.8
20260504081320 43 166 3.0 5.0 0.00 0.00 0.00 83 1008.6
20260504080816 42 137 2.0 4.0 0.00 0.00 0.00 89 1008.5
20260504080313 42 125 2.0 4.0 0.00 0.00 0.00 91 1008.9
20260504070235 43 215 0.0 2.0 0.00 0.00 0.00 94 1008.8
20260504060155 44 136 1.0 2.0 0.00 0.00 0.00 94 1009.1
20260504050624 44 109 2.0 3.0 0.00 0.00 0.00 93 1009.6
20260504050121 44 106 1.0 2.0 0.00 0.00 0.00 93 1009.6
20260504045618 44 143 0.0 2.0 0.00 0.00 0.00 93 1009.6
20260504045112 44 153 1.0 2.0 0.00 0.00 0.00 93 1009.7
20260504044611 44 146 2.0 3.0 0.00 0.00 0.00 93 1009.7
20260504044107 44 150 2.0 3.0 0.00 0.00 0.00 93 1009.7
20260504043604 44 171 0.0 2.0 0.00 0.00 0.00 93 1009.8
20260504043102 44 174 1.0 2.0 0.00 0.00 0.00 93 1009.8
20260504042559 44 132 0.0 2.0 0.00 0.00 0.00 93 1009.9
20260504042055 44 97 0.0 1.0 0.00 0.00 0.00 92 1009.8
20260504041551 45 186 1.0 2.0 0.00 0.00 0.00 92 1009.9
20260504041048 45 106 1.0 2.0 0.00 0.00 0.00 92 1010.0
20260504040545 45 103 2.0 2.0 0.00 0.00 0.00 92 1010.1
20260504040041 45 5 1.0 3.0 0.00 0.00 0.00 92 1010.2
20260504035538 45 8 2.0 2.0 0.00 0.00 0.00 92 1009.9
20260504035035 45 146 2.0 3.0 0.00 0.00 0.00 92 1009.9
20260504034533 45 289 1.0 7.0 0.00 0.00 0.00 92 1009.7
20260504034029 45 160 2.0 3.0 0.00 0.00 0.00 91 1009.9
20260504033528 45 210 2.0 3.0 0.00 0.00 0.00 91 1009.6
20260504033024 45 63 1.0 3.0 0.00 0.00 0.00 90 1009.6
20260504032521 45 153 2.0 5.0 0.00 0.00 0.00 90 1010.2
20260504032018 45 129 1.0 3.0 0.00 0.00 0.00 89 1010.5
20260504031515 46 314 1.0 3.0 0.00 0.00 0.00 89 1010.8
20260504031011 45 224 0.0 1.0 0.00 0.00 0.00 88 1010.7
20260504030509 45 206 0.0 1.0 0.00 0.00 0.00 86 1010.3
20260504030005 46 158 1.0 3.0 0.00 0.00 0.00 84 1010.2
20260504025502 46 112 1.0 2.0 0.00 0.00 0.00 82 1010.5
20260504024958 47 125 0.0 2.0 0.00 0.00 0.00 80 1010.5
20260504024455 47 59 0.0 1.0 0.00 0.00 0.00 78 1010.6
20260504023953 48 129 1.0 2.0 0.00 0.00 0.00 75 1010.8
20260504023449 48 313 4.0 6.0 0.00 0.00 0.00 74 1010.9
20260504022944 48 134 2.0 3.0 0.00 0.00 0.00 72 1010.9
20260504022441 48 6 1.0 2.0 0.00 0.00 0.00 71 1010.9
20260504021938 49 321 2.0 3.0 0.02 0.00 0.00 67 1010.7
20260504021435 49 311 4.0 5.0 0.00 0.00 0.00 65 1010.6
20260504020932 50 275 0.0 5.0 0.00 0.00 0.00 64 1010.6
20260504020429 50 284 1.0 4.0 0.00 0.00 0.00 62 1010.5
20260504015926 50 298 4.0 11.0 0.00 0.00 0.00 61 1010.5
20260504015421 49 56 1.0 2.0 0.00 0.00 0.00 66 1010.3
20260504014917 49 241 0.0 2.0 0.00 0.00 0.00 62 1010.4
20260504014414 50 75 0.0 2.0 0.00 0.00 0.00 61 1010.2
20260504013911 50 128 0.0 3.0 0.00 0.00 0.00 58 1010.1
20260504013409 51 338 1.0 4.0 0.00 0.00 0.00 57 1010.3
20260504012905 50 310 2.0 4.0 0.00 0.00 0.00 54 1010.2
20260504012403 50 95 0.0 4.0 0.00 0.00 0.00 55 1010.1
20260504011900 50 341 4.0 5.0 0.00 0.00 0.00 53 1010.4
20260504011357 51 106 2.0 2.0 0.00 0.00 0.00 53 1010.0
20260504010853 51 296 0.0 2.0 0.00 0.00 0.00 52 1010.1
20260504010348 51 237 1.0 3.0 0.00 0.00 0.00 52 1010.0
20260504005844 51 261 0.0 2.0 0.00 0.00 0.00 51 1010.0
20260504005341 51 281 4.0 7.0 0.00 0.00 0.00 51 1010.2
20260504004839 51 205 3.0 4.0 0.00 0.00 0.00 52 1009.9
20260504004336 51 30 0.0 7.0 0.00 0.00 0.00 52 1010.0
20260504003832 51 345 0.0 5.0 0.00 0.00 0.00 53 1010.1
20260504003330 51 339 5.0 7.0 0.00 0.00 0.00 53 1010.1
20260504002826 50 352 1.0 5.0 0.00 0.00 0.00 52 1010.0
20260504002323 50 121 1.0 2.0 0.00 0.00 0.00 56 1010.2
20260504001821 50 236 0.0 2.0 0.00 0.00 0.00 52 1010.2
20260504001318 50 261 0.0 1.0 0.00 0.00 0.00 52 1010.1
20260504000815 50 130 0.0 1.0 0.00 0.00 0.00 52 1009.9
20260504000312 50 189 0.0 1.0 0.00 0.00 0.00 50 1010.0
20260503235809 51 44 0.0 1.0 0.00 0.00 0.00 48 1010.0
20260503235307 51 221 0.0 1.0 0.00 0.00 0.00 49 1010.0
20260503234804 51 223 0.0 1.0 0.00 0.00 0.00 47 1009.9
20260503234302 51 275 0.0 1.0 0.00 0.00 0.00 46 1009.6
20260503233759 52 310 2.0 4.0 0.00 0.00 0.00 43 1009.6
20260503233255 52 287 3.0 5.0 0.00 0.00 0.00 43 1009.5
20260503232752 52 328 0.0 2.0 0.00 0.00 0.00 43 1009.6
20260503232249 52 297 2.0 4.0 0.00 0.00 0.00 43 1009.4
20260503231747 52 347 2.0 5.0 0.00 0.00 0.00 42 1009.7
20260503231244 53 43 0.0 3.0 0.00 0.00 0.00 42 1009.6
20260503230740 53 306 2.0 7.0 0.00 0.00 0.00 41 1009.6
20260503230238 53 292 2.0 8.0 0.00 0.00 0.00 40 1009.6
20260503225735 53 275 0.0 5.0 0.00 0.00 0.00 41 1009.8
20260503225234 53 340 3.0 5.0 0.00 0.00 0.00 41 1009.7
20260503224732 53 317 3.0 6.0 0.00 0.00 0.00 40 1009.6
20260503224230 53 284 2.0 3.0 0.00 0.00 0.00 41 1009.7
20260503223727 53 316 3.0 7.0 0.00 0.00 0.00 40 1009.7
20260503223225 53 287 2.0 7.0 0.00 0.00 0.00 40 1009.5
20260503222721 53 251 0.0 11.0 0.00 0.00 0.00 40 1009.7
20260503222219 53 292 6.0 10.0 0.00 0.00 0.00 39 1009.6
20260503221717 53 317 5.0 9.0 0.00 0.00 0.00 38 1009.6
20260503221214 53 308 4.0 12.0 0.00 0.00 0.00 38 1009.5
20260503220705 54 310 3.0 7.0 0.00 0.00 0.00 37 1009.4
20260503220201 53 321 2.0 14.0 0.00 0.00 0.00 37 1009.5
20260503215658 54 156 1.0 14.0 0.00 0.00 0.00 37 1009.5
20260503215155 53 265 3.0 20.0 0.00 0.00 0.00 37 1009.5
20260503214654 55 323 11.0 16.0 0.00 0.00 0.00 36 1009.5
20260503214149 54 291 4.0 16.0 0.00 0.00 0.00 36 1009.6
20260503213644 53 351 2.0 5.0 0.00 0.00 0.00 39 1009.6
20260503213140 53 328 11.0 15.0 0.00 0.00 0.00 37 1009.6
20260503212637 53 286 5.0 10.0 0.00 0.00 0.00 37 1009.4
20260503212135 53 270 2.0 9.0 0.00 0.00 0.00 36 1009.5
20260503211632 53 195 2.0 20.0 0.00 0.00 0.00 36 1009.4
20260503211127 53 295 6.0 7.0 0.00 0.00 0.00 35 1009.4
20260503210623 53 271 6.0 18.0 0.00 0.00 0.00 35 1009.5
20260503210120 54 351 4.0 11.0 0.00 0.00 0.00 34 1009.4
20260503205616 53 250 2.0 7.0 0.00 0.00 0.00 35 1009.4
20260503205112 53 309 7.0 15.0 0.00 0.00 0.00 34 1009.3
20260503204609 53 316 4.0 7.0 0.00 0.00 0.00 34 1009.4
20260503204107 53 293 7.0 14.0 0.00 0.00 0.00 33 1009.6
20260503203603 53 316 2.0 11.0 0.00 0.00 0.00 33 1009.6
20260503203101 53 334 11.0 11.0 0.00 0.00 0.00 33 1009.6
20260503202558 54 313 5.0 10.0 0.00 0.00 0.00 32 1009.6
20260503202056 54 327 9.0 15.0 0.00 0.00 0.00 31 1009.3
20260503201554 55 304 3.0 15.0 0.00 0.00 0.00 30 1009.7
20260503201051 54 311 10.0 15.0 0.00 0.00 0.00 30 1009.5
20260503200547 53 330 3.0 11.0 0.00 0.00 0.00 29 1009.6
20260503200044 55 6 1.0 11.0 0.00 0.00 0.00 29 1009.7
20260503195541 56 252 9.0 17.0 0.00 0.00 0.00 27 1009.7
20260503195038 55 147 2.0 21.0 0.00 0.00 0.00 28 1009.7
20260503194535 56 304 6.0 17.0 0.00 0.00 0.00 27 1009.7
20260503194035 55 264 3.0 16.0 0.00 0.00 0.00 26 1009.9
20260503193532 55 318 4.0 11.0 0.00 0.00 0.00 26 1009.8
20260503193027 54 324 9.0 17.0 0.00 0.00 0.00 28 1009.8
20260503192523 55 315 1.0 6.0 0.00 0.00 0.00 27 1009.9
20260503192019 55 15 6.0 11.0 0.00 0.00 0.00 29 1010.0
20260503191516 53 291 8.0 19.0 0.00 0.00 0.00 28 1010.2
20260503191013 53 275 10.0 26.0 0.00 0.00 0.00 28 1010.4
20260503190510 54 287 5.0 12.0 0.00 0.00 0.00 29 1010.3
20260503190008 53 299 7.0 20.0 0.00 0.00 0.00 29 1010.6
20260503185504 53 290 3.0 21.0 0.00 0.00 0.00 29 1010.5